Total_Precipitation_Accumulation
0.00 0.00 0.01 0.02 0.05 0.11 0.17 0.05 0.01 0.00 0.00 0.00 0.00 0.00 0.00 0.00 0.01 0.04 0.00 0.00 0.00 0.00 0.00 0.00 0.00 0.00 0.00 0.00 0.00 0.00 0.00 0.00 0.00 0.00 0.00 0.00 0.00 0.00 0.00 0.00 0.00 0.00 0.00 0.00 0.00 0.00 0.00 0.00 0.00
0.00 0.00 0.02 0.04 0.04 0.05 0.09 0.04 0.01 0.00 0.00 0.00 0.00 0.00 0.00 0.00 0.00 0.00 0.00 0.00 0.00 0.00 0.00 0.00 0.00 0.00 0.00 0.00 0.00 0.00 0.00 0.00 0.00 0.00 0.00 0.00 0.00 0.00 0.00 0.00 0.00 0.00 0.00 0.00 0.00 0.00 0.00 0.00 0.00
0.00 0.00 0.01 0.03 0.05 0.09 0.08 0.02 0.01 0.01 0.00 0.00 0.00 0.00 0.00 0.00 0.00 0.00 0.00 0.00 0.00 0.00 0.00 0.00 0.00 0.00 0.00 0.00 0.00 0.00 0.00 0.01 0.01 0.00 0.00 0.00 0.00 0.00 0.00 0.00 0.00 0.00 0.00 0.00 0.00 0.00 0.00 0.00 0.00
0.00 0.00 0.00 0.01 0.05 0.12 0.09 0.04 0.04 0.04 0.01 0.00 0.00 0.00 0.00 0.00 0.00 0.00 0.00 0.00 0.00 0.00 0.00 0.00 0.00 0.00 0.00 0.00 0.00 0.01 0.01 0.01 0.01 0.00 0.00 0.00 0.00 0.00 0.01 0.00 0.00 0.00 0.00 0.00 0.00 0.00 0.00 0.00 0.00
0.00 0.00 0.00 0.01 0.03 0.09 0.08 0.06 0.08 0.07 0.02 0.01 0.00 0.00 0.00 0.00 0.00 0.00 0.00 0.00 0.00 0.00 0.00 0.00 0.00 0.00 0.00 0.00 0.00 0.00 0.00 0.01 0.00 0.00 0.00 0.00 0.00 0.01 0.00 0.00 0.00 0.00 0.00 0.00 0.00 0.00 0.00 0.00 0.00
0.00 0.00 0.00 0.01 0.02 0.04 0.05 0.06 0.09 0.09 0.03 0.01 0.00 0.00 0.00 0.00 0.00 0.00 0.00 0.00 0.00 0.00 0.00 0.00 0.00 0.00 0.00 0.00 0.00 0.00 0.00 0.00 0.00 0.00 0.00 0.00 0.00 0.01 0.01 0.00 0.01 0.00 0.00 0.00 0.00 0.00 0.00 0.00 0.01
0.00 0.00 0.00 0.00 0.01 0.03 0.05 0.06 0.11 0.08 0.05 0.03 0.01 0.00 0.00 0.00 0.00 0.00 0.00 0.00 0.00 0.00 0.00 0.00 0.01 0.01 0.01 0.01 0.01 0.01 0.01 0.01 0.00 0.00 0.00 0.00 0.00 0.01 0.01 0.01 0.01 0.02 0.02 0.01 0.01 0.00 0.01 0.01 0.02
0.00 0.00 0.00 0.00 0.01 0.02 0.04 0.05 0.06 0.06 0.07 0.04 0.02 0.01 0.00 0.00 0.00 0.00 0.00 0.00 0.00 0.00 0.00 0.01 0.01 0.01 0.01 0.01 0.01 0.01 0.01 0.01 0.01 0.01 0.01 0.01 0.01 0.00 0.01 0.01 0.01 0.01 0.02 0.02 0.02 0.02 0.03 0.03 0.05
0.00 0.00 0.00 0.00 0.00 0.01 0.02 0.03 0.03 0.04 0.05 0.03 0.02 0.02 0.01 0.00 0.00 0.00 0.00 0.00 0.00 0.00 0.00 0.00 0.01 0.01 0.01 0.01 0.01 0.02 0.02 0.02 0.02 0.02 0.01 0.01 0.01 0.01 0.03 0.03 0.04 0.04 0.06 0.07 0.07 0.09 0.12 0.12 0.11
0.00 0.00 0.00 0.00 0.00 0.00 0.01 0.01 0.02 0.02 0.04 0.07 0.10 0.09 0.04 0.01 0.00 0.00 0.00 0.00 0.00 0.00 0.00 0.01 0.01 0.01 0.01 0.01 0.02 0.02 0.03 0.03 0.03 0.03 0.05 0.06 0.08 0.06 0.04 0.09 0.13 0.16 0.24 0.25 0.25 0.31 0.28 0.19 0.09
0.00 0.00 0.00 0.00 0.00 0.00 0.00 0.00 0.00 0.00 0.02 0.08 0.24 0.24 0.06 0.01 0.00 0.00 0.00 0.01 0.01 0.01 0.01 0.01 0.01 0.01 0.02 0.02 0.01 0.03 0.06 0.13 0.14 0.14 0.18 0.21 0.23 0.16 0.10 0.14 0.21 0.28 0.38 0.36 0.47 0.57 0.37 0.29 0.26
0.00 0.00 0.00 0.00 0.00 0.00 0.00 0.00 0.00 0.00 0.00 0.09 0.31 0.29 0.07 0.02 0.01 0.00 0.00 0.01 0.03 0.04 0.05 0.06 0.05 0.03 0.03 0.03 0.03 0.04 0.06 0.11 0.14 0.13 0.17 0.28 0.25 0.24 0.23 0.22 0.22 0.28 0.36 0.52 0.55 0.55 0.56 0.57 0.46
0.00 0.00 0.00 0.00 0.00 0.00 0.00 0.00 0.00 0.00 0.00 0.02 0.07 0.14 0.06 0.04 0.03 0.01 0.01 0.01 0.05 0.10 0.17 0.20 0.18 0.14 0.10 0.08 0.08 0.08 0.09 0.11 0.12 0.19 0.24 0.31 0.35 0.41 0.48 0.41 0.37 0.33 0.46 0.66 0.80 0.70 0.69 0.75 0.65
0.00 0.00 0.00 0.00 0.00 0.00 0.00 0.00 0.00 0.00 0.00 0.01 0.03 0.06 0.06 0.06 0.09 0.11 0.09 0.08 0.11 0.19 0.30 0.35 0.38 0.39 0.37 0.33 0.25 0.23 0.22 0.23 0.28 0.38 0.46 0.64 0.70 0.71 0.71 0.62 0.57 0.45 0.55 0.72 0.80 0.74 0.78 0.72 0.70
0.00 0.00 0.00 0.00 0.00 0.00 0.00 0.00 0.00 0.00 0.00 0.00 0.01 0.02 0.03 0.05 0.09 0.14 0.16 0.22 0.27 0.36 0.48 0.59 0.66 0.78 0.89 0.87 0.73 0.62 0.52 0.54 0.63 0.79 0.94 1.12 1.19 1.17 1.14 0.97 0.74 0.69 0.83 0.85 0.78 0.72 0.85 0.68 0.62
0.00 0.00 0.00 0.00 0.00 0.00 0.00 0.00 0.00 0.00 0.00 0.00 0.01 0.02 0.04 0.06 0.10 0.14 0.21 0.35 0.54 0.68 0.85 1.01 1.17 1.39 1.53 1.41 1.22 1.16 1.13 1.17 1.11 1.16 1.27 1.29 1.29 1.28 1.36 1.06 0.80 0.90 1.04 0.98 0.88 0.85 0.92 0.79 0.76
0.00 0.00 0.00 0.00 0.00 0.00 0.00 0.00 0.01 0.00 0.01 0.02 0.03 0.05 0.08 0.11 0.16 0.25 0.39 0.67 0.97 1.22 1.44 1.66 1.97 2.13 2.01 1.82 1.66 1.59 1.51 1.38 1.19 1.00 0.94 0.89 0.83 0.82 0.83 0.53 0.45 0.64 0.73 0.64 0.62 0.76 0.80 0.74 0.80
0.00 0.00 0.00 0.00 0.00 0.00 0.00 0.00 0.02 0.04 0.06 0.06 0.06 0.08 0.12 0.20 0.29 0.43 0.66 0.94 1.24 1.63 2.15 2.58 2.64 2.34 2.05 1.79 1.58 1.48 1.32 1.18 1.01 0.77 0.64 0.54 0.45 0.43 0.45 0.26 0.24 0.48 0.54 0.47 0.57 0.61 0.58 0.48 0.54
0.00 0.00 0.00 0.00 0.00 0.00 0.00 0.01 0.03 0.05 0.06 0.05 0.06 0.09 0.16 0.27 0.42 0.62 0.91 1.24 1.60 2.23 2.91 3.13 2.73 2.32 1.92 1.64 1.38 1.13 0.92 0.83 0.72 0.53 0.43 0.39 0.35 0.34 0.40 0.27 0.28 0.42 0.43 0.37 0.40 0.43 0.35 0.24 0.40
0.00 0.00 0.00 0.00 0.00 0.00 0.00 0.00 0.01 0.02 0.03 0.03 0.07 0.12 0.23 0.41 0.63 0.92 1.30 1.53 1.78 2.19 2.66 2.65 2.21 1.77 1.30 1.01 0.91 0.79 0.65 0.55 0.42 0.33 0.30 0.25 0.25 0.27 0.32 0.25 0.18 0.23 0.24 0.18 0.19 0.29 0.30 0.25 0.39
0.00 0.00 0.00 0.00 0.00 0.00 0.00 0.00 0.01 0.02 0.02 0.04 0.06 0.10 0.17 0.35 0.68 1.13 1.63 1.90 2.01 2.03 1.92 1.77 1.34 0.86 0.64 0.48 0.46 0.41 0.37 0.36 0.27 0.20 0.18 0.16 0.16 0.15 0.15 0.14 0.13 0.18 0.25 0.23 0.23 0.27 0.29 0.23 0.23
0.00 0.00 0.00 0.00 0.00 0.00 0.00 0.01 0.04 0.06 0.05 0.07 0.08 0.11 0.17 0.33 0.70 1.24 1.57 1.62 1.62 1.51 1.17 0.88 0.68 0.44 0.31 0.29 0.31 0.32 0.28 0.28 0.23 0.19 0.18 0.16 0.14 0.13 0.13 0.11 0.09 0.12 0.18 0.18 0.15 0.17 0.20 0.20 0.15
0.00 0.00 0.00 0.00 0.00 0.00 0.01 0.01 0.05 0.10 0.10 0.09 0.11 0.13 0.21 0.32 0.51 0.76 0.86 0.93 0.94 0.83 0.67 0.53 0.45 0.34 0.34 0.34 0.37 0.38 0.28 0.22 0.20 0.19 0.17 0.17 0.19 0.18 0.17 0.15 0.12 0.10 0.11 0.10 0.10 0.10 0.12 0.13 0.11
0.00 0.00 0.00 0.01 0.02 0.07 0.06 0.06 0.14 0.22 0.16 0.10 0.10 0.11 0.15 0.22 0.36 0.48 0.46 0.44 0.42 0.34 0.35 0.36 0.40 0.44 0.41 0.34 0.31 0.31 0.26 0.22 0.20 0.17 0.17 0.18 0.20 0.22 0.23 0.22 0.20 0.19 0.16 0.13 0.12 0.12 0.12 0.13 0.13
0.01 0.01 0.00 0.02 0.10 0.17 0.11 0.06 0.18 0.28 0.21 0.11 0.07 0.10 0.16 0.27 0.35 0.39 0.43 0.41 0.31 0.24 0.25 0.24 0.22 0.25 0.29 0.27 0.26 0.26 0.26 0.24 0.22 0.20 0.16 0.16 0.18 0.21 0.24 0.27 0.28 0.29 0.25 0.21 0.19 0.17 0.14 0.15 0.17
0.02 0.02 0.01 0.01 0.01 0.03 0.04 0.10 0.23 0.22 0.17 0.10 0.07 0.08 0.14 0.21 0.25 0.25 0.25 0.24 0.19 0.14 0.10 0.09 0.10 0.11 0.12 0.13 0.15 0.18 0.21 0.20 0.20 0.23 0.19 0.17 0.20 0.24 0.27 0.27 0.27 0.29 0.29 0.28 0.25 0.19 0.16 0.20 0.24
0.03 0.02 0.02 0.02 0.01 0.01 0.05 0.14 0.17 0.19 0.15 0.08 0.05 0.04 0.07 0.09 0.09 0.09 0.08 0.07 0.06 0.05 0.04 0.04 0.05 0.05 0.05 0.06 0.08 0.11 0.16 0.18 0.18 0.20 0.19 0.19 0.24 0.26 0.28 0.28 0.29 0.29 0.29 0.30 0.29 0.26 0.26 0.29 0.28
0.03 0.02 0.02 0.02 0.01 0.01 0.03 0.18 0.28 0.22 0.16 0.07 0.03 0.03 0.03 0.03 0.03 0.03 0.03 0.03 0.02 0.02 0.02 0.02 0.02 0.03 0.03 0.04 0.05 0.07 0.09 0.13 0.15 0.14 0.17 0.21 0.20 0.21 0.26 0.32 0.33 0.32 0.32 0.37 0.41 0.38 0.33 0.36 0.41
0.01 0.01 0.02 0.02 0.02 0.01 0.03 0.12 0.14 0.10 0.05 0.02 0.01 0.01 0.01 0.01 0.01 0.01 0.01 0.01 0.01 0.01 0.01 0.01 0.02 0.02 0.02 0.02 0.03 0.04 0.06 0.08 0.10 0.13 0.16 0.18 0.18 0.20 0.23 0.29 0.33 0.34 0.40 0.57 0.71 0.68 0.56 0.55 0.58
0.01 0.01 0.01 0.01 0.02 0.02 0.03 0.08 0.06 0.05 0.02 0.01 0.01 0.00 0.00 0.00 0.00 0.00 0.00 0.00 0.00 0.01 0.01 0.01 0.02 0.02 0.02 0.02 0.02 0.02 0.04 0.06 0.07 0.09 0.12 0.16 0.17 0.17 0.16 0.19 0.23 0.26 0.32 0.47 0.77 0.92 0.92 0.84 0.70